Flag for United Kingdom Weather past 2 weeks in Belfast, Northern Ireland, United Kingdom

Now
48 °F

Passing clouds.


Feels Like: 45 °F
Forecast: 40 / 60 °F
Wind: 7 mph from Northwest

Location: Belfast / Aldergrove Airport

Current Time: Aug 23, 2014 at 4:41:31 AM

Latest Report: Aug 23, 2014 at 3:50 AM


Visibility: N/A

Pressure: 29.95 "Hg

Humidity: 94%

Dew point: 46 °F

Location of BelfastLocation

Historic Weather in Belfast — Graph

°F

Belfast temperature yesterday

Maximum temperature yesterday: 59 °F (at 3:20 PM)
Minimum temperature yesterday: 46 °F (at 6:20 AM)
Average temperature yesterday: 52 °F

Past Weeks' High & Low Weather Summary

 TemperatureHumidityPressure
High66 °F (Aug 9, 5:20 PM)100% (Aug 8, 9:20 AM)30.15 "Hg (Aug 8, 9:20 AM)
Low46 °F (Aug 15, 2:50 AM)56% (Aug 9, 6:20 PM)29.39 "Hg (Aug 10, 11:50 AM)
Average55 °F83%29.79 "Hg
* Reported Aug 8 3:20 AM — Aug 23 3:20 AM, Belfast, Weather by CustomWeather, © 2014

Note: Actual official high and low records may vary slightly from our data, if they occured in-between our weather recording intervals... More about our weather records

Advertising

Belfast weather history for previous 24 hours

 ConditionsComfort  
Time TempWeatherWind HumidityBarometerVisibility
3:20 AM
Aug 23
48 °FPassing clouds.9 mph94%29.95 "HgN/A
2:50 AM50 °FLight rain. Partly cloudy.8 mph88%29.95 "HgN/A
2:20 AM50 °FLight rain. Partly cloudy.10 mph88%29.95 "HgN/A
1:50 AM50 °FPartly cloudy.8 mph88%29.95 "HgN/A
1:20 AM50 °FLight rain. Passing clouds.7 mph88%29.95 "HgN/A
12:50 AM50 °FLight rain. Passing clouds.9 mph88%29.95 "HgN/A
12:20 AM50 °FPassing clouds.9 mph88%29.95 "HgN/A
11:50 PM
Aug 22
50 °FLight rain. Partly cloudy.9 mph88%29.98 "HgN/A
11:20 PM50 °FPartly cloudy.9 mph88%29.98 "HgN/A
10:50 PM50 °FClear.8 mph88%29.98 "Hg10 mi
10:20 PM50 °FClear.9 mph88%29.98 "Hg10 mi
9:50 PM52 °FLight rain. Passing clouds.9 mph82%29.98 "HgN/A
9:20 PM52 °FBroken clouds.9 mph82%29.95 "HgN/A
8:50 PM52 °FPassing clouds.7 mph77%29.95 "HgN/A
8:20 PM52 °FScattered clouds.10 mph77%29.95 "HgN/A
7:50 PM54 °FScattered clouds.12 mph72%29.95 "HgN/A
7:20 PM55 °FPassing clouds.14 mph67%29.95 "HgN/A
6:50 PM55 °FPassing clouds.13 mph63%29.95 "HgN/A
6:20 PM55 °FScattered clouds.13 mph67%29.95 "HgN/A
5:50 PM55 °FScattered clouds.12 mph67%29.95 "HgN/A
5:20 PM57 °FPassing clouds.14 mph59%29.95 "HgN/A
4:50 PM57 °FScattered clouds.13 mph63%29.95 "HgN/A
4:20 PM55 °FPassing clouds.12 mph77%29.95 "HgN/A
3:50 PM54 °FSprinkles. Partly sunny.8 mph77%29.95 "HgN/A
3:20 PM59 °FSprinkles. Broken clouds.12 mph63%29.95 "HgN/A
2:50 PM55 °FSprinkles. Broken clouds.15 mph72%29.95 "HgN/A
2:20 PM57 °FPassing clouds.12 mph67%29.92 "HgN/A
1:50 PM54 °FPartly sunny.13 mph77%29.92 "HgN/A
1:20 PM55 °FScattered clouds.10 mph77%29.92 "HgN/A
12:50 PM54 °FSprinkles. Scattered clouds.12 mph82%29.92 "Hg6 mi
12:20 PM55 °FScattered clouds.10 mph72%29.92 "HgN/A
11:50 AM57 °FScattered clouds.10 mph67%29.92 "HgN/A
11:20 AM54 °FScattered clouds.10 mph82%29.92 "HgN/A
10:50 AM52 °FLight rain. Broken clouds.10 mph88%29.92 "HgN/A
10:20 AM55 °FScattered clouds.10 mph72%29.89 "HgN/A
9:50 AM54 °FScattered clouds.10 mph82%29.89 "HgN/A
9:20 AM52 °FPassing clouds.10 mph88%29.89 "HgN/A
8:50 AM50 °FPassing clouds.7 mph88%29.89 "HgN/A
8:20 AM50 °FPassing clouds.8 mph88%29.89 "HgN/A
7:20 AM48 °FPassing clouds.8 mph87%29.86 "HgN/A
6:50 AM48 °FClear.7 mph87%29.86 "Hg10 mi
6:20 AM46 °FPassing clouds.5 mph93%29.86 "HgN/A
5:50 AM48 °FPassing clouds.6 mph87%29.86 "HgN/A
5:20 AM48 °FPassing clouds.9 mph87%29.86 "HgN/A
4:50 AM48 °FPassing clouds.8 mph94%29.86 "HgN/A
4:20 AM48 °FPassing clouds.7 mph94%29.86 "HgN/A
Weather by CustomWeather, © 2014

See weather overviewHow to use our weather pages